Location: *
(1.3500°S, 147.5000°W)
Time: 04:16:23
(UTC+00:00)

Envisat - Pass Details

Date: 26 June 2021
Orbit: 764 x 766 km, 98.2° (Epoch: 03 August)

Event Time Altitude Azimuth Distance (km) Brightness Sun altitude
Rises 13:57:17 0° 39° (NE) 3,214 7.2 -27.0°
Reaches altitude 10° 14:00:06 10° 54° (NE) 2,292 6.4 -26.3°
Maximum altitude 14:03:51 21° 103° (ESE) 1,659 5.2 -25.5°
Drops below altitude 10° 14:07:36 10° 151° (SSE) 2,299 5.5 -24.6°
Sets 14:10:25 0° 166° (SSE) 3,228 6.1 -24.0°
